Rochester, Indiana, United States (46975)
Lat: 41.06N, Lon: 86.22W
Wx Zone: INZ015
Local Info
Past Weather Observations for Today

NOTE: This archive is for the closest National Weather Service station to Rochester. Information may differ from the station used for current weather conditions.

Click here for Long-term Archive

Time Weather Temperature Dewpoint Humidity Pressure Winds Precip Visibility
11:35
Overcast
Light Rain
45°F / 7°C 41°F / 5°C 87% 30.06 in
(1018 mb)
E 9.2 mph
(E 15 kph)
0.01 in
(0.25 mm)
10SM
11:15
Overcast
Light Rain
45°F / 7°C 41°F / 5°C 87% 30.06 in
(1018 mb)
E 9.2 mph
(E 15 kph)
0.01 in
(0.25 mm)
10SM
10:55
Overcast
Light Rain
45°F / 7°C 41°F / 5°C 87% 30.06 in
(1018 mb)
E 9.2 mph
(E 15 kph)
0.03 in
(0.76 mm)
10SM
10:35
Overcast
Rain
45°F / 7°C 37°F / 3°C 76% 30.06 in
(1018 mb)
E 11.5 mph
(E 19 kph)
0.02 in
(0.51 mm)
10SM
10:15
Overcast
Light Rain
45°F / 7°C 37°F / 3°C 76% 30.06 in
(1018 mb)
E 13.8 mph
(E 22 kph)
0.01 in
(0.25 mm)
10SM
09:55
Mostly Cloudy
Light Rain
45°F / 7°C 37°F / 3°C 76% 30.06 in
(1018 mb)
ESE 11.5 mph
(ESE 19 kph)
- 10SM
09:35
Mostly Cloudy
Light Rain
45°F / 7°C 36°F / 2°C 71% 30.06 in
(1018 mb)
ESE 16.1 mph
(ESE 26 kph)
- 10SM
09:15
Overcast
45°F / 7°C 36°F / 2°C 71% 30.06 in
(1018 mb)
E 11.5 mph
(E 19 kph)
- 10SM
08:55
Overcast
45°F / 7°C 36°F / 2°C 71% 30.06 in
(1018 mb)
E 15 mph
(E 24 kph)
- 10SM
08:35
Mostly Cloudy
45°F / 7°C 36°F / 2°C 71% 30.06 in
(1018 mb)
E 13.8 mph
(E 22 kph)
- 10SM
08:15
Partly Cloudy
45°F / 7°C 34°F / 1°C 66% 30.09 in
(1019 mb)
E 12.7 mph
(E 20 kph)
- 10SM
07:55
Clear
45°F / 7°C 34°F / 1°C 66% 30.09 in
(1019 mb)
E 10.4 mph
(E 17 kph)
- 10SM
07:35
Clear
43°F / 6°C 36°F / 2°C 76% 30.09 in
(1019 mb)
ESE 12.7 mph
(ESE 20 kph)
- 10SM
07:15
Clear
43°F / 6°C 36°F / 2°C 76% 30.09 in
(1019 mb)
ESE 9.2 mph
(ESE 15 kph)
- 10SM
06:55
Clear
43°F / 6°C 36°F / 2°C 76% 30.09 in
(1019 mb)
ESE 11.5 mph
(ESE 19 kph)
- 10SM
06:35
Clear
43°F / 6°C 37°F / 3°C 81% 30.09 in
(1019 mb)
SE 10.4 mph
(SE 17 kph)
- 10SM
06:15
Clear
43°F / 6°C 37°F / 3°C 81% 30.09 in
(1019 mb)
ESE 9.2 mph
(ESE 15 kph)
- 10SM
05:55
Clear
43°F / 6°C 37°F / 3°C 81% 30.09 in
(1019 mb)
ESE 9.2 mph
(ESE 15 kph)
- 10SM
05:35
Clear
43°F / 6°C 37°F / 3°C 81% 30.06 in
(1018 mb)
E 9.2 mph
(E 15 kph)
- 10SM
05:15
Clear
43°F / 6°C 37°F / 3°C 81% 30.06 in
(1018 mb)
E 9.2 mph
(E 15 kph)
- 10SM
04:55
Clear
41°F / 5°C 37°F / 3°C 87% 30.06 in
(1018 mb)
E 9.2 mph
(E 15 kph)
- 7SM
04:35
Clear
43°F / 6°C 39°F / 4°C 87% 30.09 in
(1019 mb)
E 9.2 mph
(E 15 kph)
- 7SM
04:15
Clear
43°F / 6°C 39°F / 4°C 87% 30.09 in
(1019 mb)
E 6.9 mph
(E 11 kph)
- 7SM
03:55
Clear
43°F / 6°C 39°F / 4°C 87% 30.06 in
(1018 mb)
E 8.1 mph
(E 13 kph)
- 7SM
03:35
Clear
43°F / 6°C 41°F / 5°C 93% 30.06 in
(1018 mb)
E 9.2 mph
(E 15 kph)
- 7SM
03:15
Clear
43°F / 6°C 41°F / 5°C 93% 30.06 in
(1018 mb)
E 8.1 mph
(E 13 kph)
- 7SM
02:55
Clear
Fog And Mist
43°F / 6°C 41°F / 5°C 93% 30.09 in
(1019 mb)
E 6.9 mph
(E 11 kph)
- 5SM
02:35
Clear
Fog And Mist
43°F / 6°C 41°F / 5°C 93% 30.09 in
(1019 mb)
ESE 6.9 mph
(ESE 11 kph)
- 5SM
02:15
Clear
Fog And Mist
43°F / 6°C 41°F / 5°C 93% 30.06 in
(1018 mb)
E 9.2 mph
(E 15 kph)
- 5SM
01:55
Clear
45°F / 7°C 41°F / 5°C 87% 30.09 in
(1019 mb)
E 9.2 mph
(E 15 kph)
- 7SM
01:35
Clear
45°F / 7°C 41°F / 5°C 87% 30.09 in
(1019 mb)
E 8.1 mph
(E 13 kph)
- 7SM
01:15
Clear
45°F / 7°C 41°F / 5°C 87% 30.09 in
(1019 mb)
ESE 8.1 mph
(ESE 13 kph)
- 7SM
00:55
Clear
45°F / 7°C 41°F / 5°C 87% 30.12 in
(1020 mb)
ESE 8.1 mph
(ESE 13 kph)
- 7SM
00:35
Clear
46°F / 8°C 43°F / 6°C 87% 30.12 in
(1020 mb)
ESE 9.2 mph
(ESE 15 kph)
- 7SM
00:15
Partly Cloudy
46°F / 8°C 45°F / 7°C 93% 30.09 in
(1019 mb)
E 6.9 mph
(E 11 kph)
- 7SM
Time Weather Temperature Dewpoint Humidity Pressure Winds Precip Visibility


Weather for websites

WeatherForYou.com, LLC is not responsible for any damages or problems caused by this service. Current weather conditions are obtained from the closest station including government and personal stations which may have varying degrees of accuracy. Weather forecasts are derived from the NOAA NDFD. Like all things, this site belongs to Jesus Christ... He just trusts us to maintain it. If you have any questions or comments email webmaster@weatherforyou.com

Copyright © 2016, WeatherForYou.com LLC. All rights reserved.